This is the latest recevied weather packets stored in our database for station/object KF6GPE. If no packets are shown the sender has not sent any weather packets the latest 10 day(s).
| Time | Temp. | Humidity | Pressure | Rain* | Wind** | Luminosity | Snow |
|---|---|---|---|---|---|---|---|
| 1777573806 | 19.44° C | 61% | 988.1 hPa | 0 mm | - | 1086 W/m² | - |
| 1777569604 | 13.89° C | 77% | 988.5 hPa | 0 mm | - | 1032 W/m² | - |
| 1777566003 | 11.11° C | 87% | 988.6 hPa | 0 mm | - | 1002 W/m² | - |
| 1777564804 | 10.56° C | 88% | 988.6 hPa | 0 mm | - | 1002 W/m² | - |
| 1777561205 | 7.78° C | 98% | 988.5 hPa | 0 mm | - | 1001 W/m² | - |
| 1777560603 | 7.78° C | 98% | 988.5 hPa | 0 mm | - | 1001 W/m² | - |
| 1777558803 | 7.22° C | 97% | 988.3 hPa | 0 mm | - | 1001 W/m² | - |
| 1777558203 | 7.22° C | 97% | 988.3 hPa | 0 mm | - | 1001 W/m² | - |
| 1777552203 | 7.22° C | 97% | 988.4 hPa | 0 mm | - | 1000 W/m² | - |
| 1777551603 | 7.22° C | 97% | 988.4 hPa | 0 mm | - | 1000 W/m² | - |
| 1777548003 | 7.22° C | 96% | 988.5 hPa | 0 mm | - | 1000 W/m² | - |
| 1777546803 | 7.78° C | 96% | 988.5 hPa | 0 mm | - | 1000 W/m² | - |
| 1777545603 | 7.78° C | 96% | 988.5 hPa | 0 mm | - | 1000 W/m² | - |
| 1777545003 | 7.78° C | 96% | 988.5 hPa | 0 mm | - | 1000 W/m² | - |
| 1777544403 | 7.78° C | 96% | 988.5 hPa | 0 mm | - | 1000 W/m² | - |
| 1777543803 | 7.78° C | 95% | 988.5 hPa | 0 mm | - | 1000 W/m² | - |
| 1777542003 | 8.33° C | 95% | 988.7 hPa | 0 mm | - | 1000 W/m² | - |
| 1777541403 | 8.33° C | 95% | 988.9 hPa | 0 mm | - | 1000 W/m² | - |
| 1777540802 | 8.33° C | 95% | 988.9 hPa | 0 mm | - | 1000 W/m² | - |
| 1777540203 | 8.33° C | 95% | 989 hPa | 0 mm | - | 1000 W/m² | - |
| 1777537203 | 8.89° C | 94% | 989.1 hPa | 0 mm | - | 1000 W/m² | - |
| 1777536603 | 8.89° C | 94% | 989.1 hPa | 0 mm | - | 1000 W/m² | - |
| 1777534802 | 8.89° C | 94% | 989.4 hPa | 0 mm | - | 1000 W/m² | - |
| 1777534203 | 8.89° C | 94% | 989.5 hPa | 0 mm | - | 1000 W/m² | - |
| 1777533603 | 8.89° C | 94% | 989.5 hPa | 0 mm | - | 1000 W/m² | - |
* Rain latest hour (hover to see other rain measurements)
** Current wind speed in m/s (hover to see current wind gust speed)